sat.trackr.live / text

‹ back to catalog

STARLINK-5948

NORAD 55991 · 2023-042F

PAYLOAD ACTIVE UNKNOWN

§ Identity

Operator
Country
US
Launch date
2023-03-24
Launch site
AFETR
Launch vehicle
Mass (kg)
RCS (m²)

Purposes: comms

External: N2YO · Heavens-Above · Gunter

§ Orbital elements

Epoch: 2026-09-19T17:12:27.587808Z

Period
94.27 min
Inclination
43.0051°
Eccentricity
0.0002028
Mean motion
15.27579004 rev/d
Perigee alt
481.7 km
Apogee alt
484.4 km
Semi-major
6,861.2 km
B*
1.7366e-5
RAAN
40.4145°
Arg perigee
264.9771°
Mean anomaly
95.0850°
Rev number
19,258

§ Raw data

STARLINK-59481 55991U 23042F   26262.71698597  .00000215  00000+0  17366-4 0  99942 55991  43.0051  40.4145 0002028 264.9771  95.0850 15.27579004192582

JSON: /api/v1/satellites/55991 · /tle

For live sub-satellite position, see the globe view (requires WebGL).

§ Visibility from observer

Set your observer location to see the next 7 days of passes ≥ 10°. The values pass through the URL so the page stays shareable.

No JS? Fill the form by hand. The geolocation button needs JavaScript.